| time (UTC) | temp C | wind direction | speed KPH | gust KPH | rain 1hr cm | rain 24hr cm | rain mn cm | humidity % | barometer mb |
| 20260504003216 | 14 | 107 | 1.6 | 6.4 | 0.00 | 0.00 | 0.00 | 83 | 1021.5 |
| 20260504002003 | 14 | 115 | 1.6 | 4.8 | 0.00 | 0.00 | 0.00 | 83 | 1021.6 |
| 20260504001004 | 14 | 109 | 1.6 | 3.2 | 0.00 | 0.00 | 0.00 | 82 | 1021.7 |
| 20260504000214 | 14 | 108 | 3.2 | 6.4 | 0.00 | 0.00 | 0.00 | 82 | 1021.8 |
| 20260503235004 | 15 | 131 | 3.2 | 6.4 | 0.00 | 0.00 | 0.00 | 82 | 1021.9 |
| 20260503234003 | 15 | 136 | 3.2 | 6.4 | 0.00 | 0.00 | 0.00 | 82 | 1022.0 |
| 20260503233003 | 15 | 135 | 3.2 | 6.4 | 0.00 | 0.00 | 0.00 | 82 | 1022.2 |
| 20260503232003 | 15 | 122 | 3.2 | 6.4 | 0.00 | 0.00 | 0.00 | 82 | 1022.2 |
| 20260503231003 | 15 | 132 | 3.2 | 6.4 | 0.00 | 0.00 | 0.00 | 81 | 1022.2 |
| 20260503230216 | 15 | 126 | 3.2 | 6.4 | 0.00 | 0.00 | 0.00 | 81 | 1022.2 |
| 20260503225003 | 15 | 147 | 3.2 | 6.4 | 0.00 | 0.00 | 0.00 | 81 | 1022.4 |
| 20260503224004 | 15 | 139 | 3.2 | 4.8 | 0.00 | 0.00 | 0.00 | 81 | 1022.5 |
| 20260503223004 | 15 | 138 | 1.6 | 4.8 | 0.00 | 0.00 | 0.00 | 81 | 1022.5 |
| 20260503222003 | 15 | 145 | 3.2 | 6.4 | 0.00 | 0.00 | 0.00 | 81 | 1022.5 |
| 20260503221003 | 15 | 142 | 3.2 | 6.4 | 0.00 | 0.00 | 0.00 | 81 | 1022.5 |
| 20260503220005 | 15 | 151 | 3.2 | 8.0 | 0.00 | 0.00 | 0.00 | 81 | 1022.4 |
| 20260503215003 | 15 | 151 | 3.2 | 8.0 | 0.00 | 0.00 | 0.00 | 81 | 1022.4 |
| 20260503214003 | 15 | 151 | 3.2 | 6.4 | 0.00 | 0.00 | 0.00 | 81 | 1022.3 |
| 20260503213003 | 15 | 153 | 3.2 | 8.0 | 0.00 | 0.00 | 0.00 | 81 | 1022.2 |
| 20260503212003 | 15 | 158 | 1.6 | 6.4 | 0.00 | 0.00 | 0.00 | 81 | 1022.2 |
| 20260503211003 | 15 | 200 | 3.2 | 6.4 | 0.00 | 0.00 | 0.00 | 81 | 1022.1 |
| 20260503210005 | 15 | 215 | 3.2 | 11.3 | 0.00 | 0.00 | 0.00 | 81 | 1022.2 |
| 20260503205213 | 15 | 220 | 3.2 | 6.4 | 0.00 | 0.00 | 0.00 | 80 | 1022.2 |
| 20260503204214 | 15 | 225 | 3.2 | 12.9 | 0.00 | 0.00 | 0.00 | 80 | 1022.2 |
| 20260503203003 | 15 | 222 | 4.8 | 11.3 | 0.00 | 0.00 | 0.00 | 80 | 1022.1 |
| 20260503202003 | 15 | 226 | 4.8 | 11.3 | 0.00 | 0.00 | 0.00 | 79 | 1022.0 |
| 20260503201004 | 16 | 218 | 3.2 | 11.3 | 0.00 | 0.00 | 0.00 | 78 | 1021.9 |
| 20260503200004 | 16 | 197 | 1.6 | 9.7 | 0.00 | 0.00 | 0.00 | 77 | 1021.9 |
| 20260503195004 | 16 | 211 | 3.2 | 8.0 | 0.00 | 0.00 | 0.00 | 77 | 1021.8 |
| 20260503194003 | 16 | 205 | 1.6 | 9.7 | 0.00 | 0.00 | 0.00 | 77 | 1021.7 |
| 20260503193003 | 16 | 209 | 3.2 | 8.0 | 0.00 | 0.00 | 0.00 | 77 | 1021.6 |
| 20260503192003 | 16 | 218 | 4.8 | 9.7 | 0.00 | 0.00 | 0.00 | 77 | 1021.6 |
| 20260503191003 | 16 | 224 | 4.8 | 11.3 | 0.00 | 0.00 | 0.00 | 77 | 1021.5 |
| 20260503190004 | 16 | 224 | 4.8 | 14.5 | 0.00 | 0.00 | 0.00 | 76 | 1021.5 |
| 20260503185003 | 16 | 228 | 3.2 | 11.3 | 0.00 | 0.00 | 0.00 | 75 | 1021.2 |
| 20260503184003 | 16 | 233 | 4.8 | 12.9 | 0.00 | 0.00 | 0.00 | 75 | 1021.0 |
| 20260503183004 | 17 | 234 | 4.8 | 14.5 | 0.00 | 0.00 | 0.00 | 74 | 1021.0 |
| 20260503182004 | 17 | 232 | 4.8 | 11.3 | 0.00 | 0.00 | 0.00 | 73 | 1020.9 |
| 20260503181004 | 17 | 235 | 4.8 | 12.9 | 0.00 | 0.00 | 0.00 | 72 | 1021.0 |
| 20260503180004 | 18 | 246 | 4.8 | 12.9 | 0.00 | 0.00 | 0.00 | 70 | 1020.8 |
| 20260503175215 | 18 | 243 | 6.4 | 11.3 | 0.00 | 0.00 | 0.00 | 70 | 1020.7 |
| 20260503174216 | 19 | 236 | 6.4 | 19.3 | 0.00 | 0.00 | 0.00 | 67 | 1020.5 |
| 20260503173003 | 20 | 227 | 3.2 | 14.5 | 0.00 | 0.00 | 0.00 | 63 | 1020.3 |
| 20260503172003 | 21 | 238 | 3.2 | 11.3 | 0.00 | 0.00 | 0.00 | 61 | 1020.3 |
| 20260503171003 | 21 | 237 | 3.2 | 11.3 | 0.00 | 0.00 | 0.00 | 60 | 1020.3 |
| 20260503151003 | 22 | 238 | 8.0 | 16.1 | 0.00 | 0.00 | 0.00 | 56 | 1020.6 |
| 20260503140217 | 22 | 246 | 11.3 | 19.3 | 0.00 | 0.00 | 0.00 | 54 | 1021.2 |
| 20260503131003 | 22 | 239 | 9.7 | 22.5 | 0.00 | 0.00 | 0.00 | 54 | 1021.5 |
| 20260503100214 | 19 | 280 | 3.2 | 9.7 | 0.00 | 0.00 | 0.00 | 63 | 1022.7 |
| 20260503081003 | 16 | 264 | 3.2 | 8.0 | 0.00 | 0.00 | 0.00 | 72 | 1023.6 |
| 20260503080216 | 16 | 252 | 3.2 | 8.0 | 0.00 | 0.00 | 0.00 | 71 | 1023.5 |
| 20260503072003 | 15 | 74 | 1.6 | 4.8 | 0.00 | 0.00 | 0.00 | 73 | 1023.9 |
| 20260503071004 | 15 | 253 | 1.6 | 3.2 | 0.00 | 0.00 | 0.00 | 73 | 1024.0 |
| 20260503055003 | 11 | 29 | 1.6 | 6.4 | 0.00 | 0.00 | 0.00 | 79 | 1024.0 |
| 20260503054003 | 11 | 331 | 0.0 | 4.8 | 0.00 | 0.00 | 0.00 | 80 | 1023.8 |
| 20260503053003 | 11 | 255 | 1.6 | 1.6 | 0.00 | 0.00 | 0.00 | 80 | 1023.8 |
| 20260503052004 | 11 | 69 | 0.0 | 3.2 | 0.00 | 0.00 | 0.00 | 79 | 1023.6 |
| 20260503051003 | 11 | 61 | 1.6 | 1.6 | 0.00 | 0.00 | 0.00 | 78 | 1023.6 |
| 20260503050218 | 11 | 51 | 1.6 | 3.2 | 0.00 | 0.00 | 0.00 | 80 | 1023.6 |
| 20260503045003 | 10 | 3 | 3.2 | 8.0 | 0.00 | 0.00 | 0.00 | 80 | 1023.7 |
| 20260503044003 | 10 | 288 | 1.6 | 4.8 | 0.00 | 0.00 | 0.00 | 82 | 1023.7 |
| 20260503043003 | 9 | 62 | 3.2 | 6.4 | 0.00 | 0.00 | 0.00 | 83 | 1023.4 |
| 20260503042003 | 9 | 65 | 3.2 | 6.4 | 0.00 | 0.00 | 0.00 | 83 | 1023.3 |
| 20260503041004 | 9 | 63 | 1.6 | 4.8 | 0.00 | 0.00 | 0.00 | 82 | 1023.4 |
| 20260503040003 | 10 | 46 | 0.0 | 1.6 | 0.00 | 0.00 | 0.00 | 81 | 1023.5 |
| 20260503035004 | 10 | 295 | 0.0 | 1.6 | 0.00 | 0.00 | 0.00 | 81 | 1023.4 |
| 20260503034004 | 10 | 34 | 0.0 | 1.6 | 0.00 | 0.00 | 0.00 | 80 | 1023.4 |
| 20260503033003 | 10 | 242 | 0.0 | 1.6 | 0.00 | 0.00 | 0.00 | 80 | 1023.4 |
| 20260503032003 | 10 | 252 | 1.6 | 3.2 | 0.00 | 0.00 | 0.00 | 80 | 1023.3 |
| 20260503031003 | 10 | 266 | 0.0 | 3.2 | 0.00 | 0.00 | 0.00 | 81 | 1023.3 |
| 20260503030004 | 10 | 0 | 0.0 | 0.0 | 0.00 | 0.00 | 0.00 | 82 | 1023.3 |
| 20260503025215 | 10 | 0 | 0.0 | 0.0 | 0.00 | 0.00 | 0.00 | 82 | 1023.4 |
| 20260503024003 | 10 | 0 | 0.0 | 0.0 | 0.00 | 0.00 | 0.00 | 81 | 1023.4 |
| 20260503023003 | 10 | 74 | 0.0 | 1.6 | 0.00 | 0.00 | 0.00 | 81 | 1023.4 |
| 20260503022003 | 10 | 74 | 0.0 | 1.6 | 0.00 | 0.00 | 0.00 | 80 | 1023.4 |
| 20260503021004 | 10 | 0 | 0.0 | 0.0 | 0.00 | 0.00 | 0.00 | 79 | 1023.5 |
| 20260503020004 | 11 | 0 | 0.0 | 0.0 | 0.00 | 0.00 | 0.00 | 79 | 1023.3 |
| 20260503015003 | 10 | 0 | 0.0 | 0.0 | 0.00 | 0.00 | 0.00 | 80 | 1023.5 |
| 20260503014003 | 10 | 0 | 0.0 | 0.0 | 0.00 | 0.00 | 0.00 | 80 | 1023.6 |
| 20260503013003 | 10 | 52 | 0.0 | 3.2 | 0.00 | 0.00 | 0.00 | 80 | 1023.5 |
| 20260503012004 | 11 | 0 | 0.0 | 0.0 | 0.00 | 0.00 | 0.00 | 77 | 1023.4 |
| 20260503011004 | 11 | 0 | 0.0 | 0.0 | 0.00 | 0.00 | 0.00 | 76 | 1023.5 |
| 20260503010004 | 11 | 0 | 0.0 | 0.0 | 0.00 | 0.00 | 0.00 | 74 | 1023.6 |
| 20260503005003 | 13 | 112 | 0.0 | 3.2 | 0.00 | 0.00 | 0.00 | 72 | 1023.6 |
| 20260503004003 | 12 | 121 | 0.0 | 1.6 | 0.00 | 0.00 | 0.00 | 73 | 1023.8 |